Weather History for Aberdeen, SD

Change the Weather History Date:

Friday, January 18, 2013

  Actual Average Record
Temperature  
Mean Temperature 32 °F 12 °F  
Max Temperature 42 °F 22 °F 51 °F (1944)
Min Temperature 21 °F 1 °F -34 °F (1970)
Degree Days  
Heating Degree Days 33 53  
Month to date heating degree days 858 954  
Since 1 July heating degree days 4282 4445  
Cooling Degree Days 0 0  
Month to date cooling degree days 0 0  
Year to date cooling degree days 0 0  
Moisture  
Dew Point 25 °F    
Average Humidity 73    
Maximum Humidity 88    
Minimum Humidity 57    
Precipitation  
Precipitation 0.00 in 0.02 in 0.40 in (1913)
Month to date precipitation 0.08 0.30  
Year to date precipitation 0.08 0.30  
Snow  
Snow 0.00 in - - ()
Month to date snowfall 1.3  
Since 1 July snowfall 15.2  
Snow Depth 1.00 in    
Sea Level Pressure  
Sea Level Pressure 29.85 in    
Wind  
Wind Speed 8 mph (SSW)    
Max Wind Speed 15 mph    
Max Gust Speed 20 mph    
Visibility 10 miles    
Events      
T = Trace of Precipitation, MM = Missing Value Source: NWS Daily Summary

Daily Weather History Graph

Daily Weather History Graph

Search for Another Location

Airport:

Trip Planner

Search our weather history database for the weather conditions in past years. The results will help you decide how hot, cold, wet, or windy it might be!

Date:

Astronomy

Jan. 18, 2013 Rise Set
Actual Time 8:07 AM CST 5:21 PM CST
Civil Twilight 7:34 AM CST 5:54 PM CST
Nautical Twilight 6:58 AM CST 6:30 PM CST
Astronomical Twilight 6:23 AM CST 7:05 PM CST
Moon 11:22 AM CST (1/18) 12:36 AM CST (1/18)
Length of Visible Light 10h 19m
Length of Day
9h 13m
Waxing Crescent, 47% of the Moon is Illuminated
Jan 18
Waxing Crescent
Jan 18
First Quarter
Jan 26
Full
Feb 3
Last Quarter
Feb 10
New

Hourly Weather History & Observations

Time (CST) Temp. Windchill Dew Point Humidity Pressure Visibility Wind Dir Wind Speed Gust Speed Precip Events Conditions
12:03 AM 28.4 °F 19.7 °F 24.8 °F 86% 30.01 in 10.0 mi South 9.2 mph - N/A   Overcast
12:14 AM 28.4 °F 18.5 °F 24.8 °F 86% 30.00 in 10.0 mi South 11.5 mph - N/A   Overcast
12:53 AM 28.0 °F 18.6 °F 24.1 °F 85% 30.03 in 10.0 mi South 10.4 mph - N/A   Overcast
1:18 AM 26.6 °F 16.2 °F 23.0 °F 86% 29.95 in 9.0 mi South 11.5 mph - N/A   Scattered Clouds
1:53 AM 26.1 °F 13.6 °F 23.0 °F 88% 29.96 in 8.0 mi South 16.1 mph - N/A   Clear
2:53 AM 25.0 °F 15.5 °F 21.9 °F 88% 29.96 in 8.0 mi South 9.2 mph - N/A   Clear
3:53 AM 24.1 °F 14.4 °F 21.0 °F 88% 29.93 in 10.0 mi South 9.2 mph - N/A   Clear
4:53 AM 25.0 °F 15.5 °F 21.0 °F 85% 29.89 in 10.0 mi South 9.2 mph - N/A   Clear
5:53 AM 26.6 °F 16.2 °F 21.2 °F 80% 29.80 in 10.0 mi South 11.5 mph - N/A   Clear
6:53 AM 25.0 °F 16.3 °F 21.0 °F 85% 29.84 in 10.0 mi South 8.1 mph - N/A   Clear
7:53 AM 24.1 °F 15.2 °F 19.0 °F 81% 29.84 in 10.0 mi South 8.1 mph - N/A   Clear
8:53 AM 24.1 °F 15.2 °F 18.0 °F 77% 29.85 in 10.0 mi SSW 8.1 mph - N/A   Clear
9:53 AM 28.9 °F 21.9 °F 21.9 °F 75% 29.85 in 10.0 mi SW 6.9 mph - N/A   Clear
10:53 AM 35.1 °F 27.4 °F 26.1 °F 70% 29.83 in 10.0 mi WSW 10.4 mph - N/A   Clear
11:53 AM 37.9 °F 33.5 °F 27.0 °F 65% 29.83 in 10.0 mi WNW 5.8 mph - N/A   Clear
12:53 PM 39.0 °F 34.0 °F 28.9 °F 67% 29.81 in 10.0 mi WSW 6.9 mph - N/A   Partly Cloudy
1:53 PM 39.9 °F 34.5 °F 28.9 °F 65% 29.82 in 10.0 mi WNW 8.1 mph - N/A   Clear
2:53 PM 41.0 °F 38.0 °F 30.0 °F 65% 29.81 in 10.0 mi WNW 4.6 mph - N/A   Clear
3:53 PM 42.1 °F 39.2 °F 28.9 °F 60% 29.81 in 10.0 mi WNW 4.6 mph - N/A   Clear
4:53 PM 35.1 °F 29.3 °F 28.9 °F 78% 29.82 in 10.0 mi South 6.9 mph - N/A   Clear
5:53 PM 33.1 °F 27.7 °F 27.0 °F 78% 29.83 in 10.0 mi South 5.8 mph - N/A   Clear
6:53 PM 33.1 °F 26.1 °F 28.0 °F 82% 29.82 in 10.0 mi SSW 8.1 mph - N/A   Clear
7:53 PM 33.1 °F 25.5 °F 28.0 °F 82% 29.81 in 10.0 mi South 9.2 mph - N/A   Clear
8:53 PM 35.1 °F 28.6 °F 28.9 °F 78% 29.79 in 10.0 mi South 8.1 mph - N/A   Clear
9:53 PM 33.1 °F 26.9 °F 28.9 °F 85% 29.78 in 10.0 mi South 6.9 mph - N/A   Clear
10:53 PM 33.1 °F 26.1 °F 28.0 °F 82% 29.76 in 10.0 mi South 8.1 mph - N/A   Partly Cloudy
11:53 PM 32.0 °F 24.8 °F 27.0 °F 82% 29.76 in 10.0 mi SSW 8.1 mph - N/A   Partly Cloudy